Regional Weather Roundup
Issued by NWS

Home | Current Version | Previous Version | Graphics & Text | Print | Product List | Glossary On
Versions: 1 2 3 4 5 6 7 8 9 10 11 12 13 14 15 16 17 18 19 20 21 22 23 24 25 26 27 28 29 30 31 32 33 34 35 36 37 38 39 40 41 42 43 44 45 46 47 48 49 50
000
ASUS43 KMPX 101210
RWRMN
WEATHER ROUNDUP FOR MINNESOTA
NATIONAL WEATHER SERVICE TWIN CITIES/CHANHASSEN MN
600 AM CST SUN DEC 10 2017


NOTE: "FAIR" INDICATES FEW OR NO CLOUDS BELOW 12,000 FEET WITH NO
SIGNIFICANT WEATHER AND/OR OBSTRUCTIONS TO VISIBILITY. N/A MEANS
CURRENT SKY AND/OR WEATHER CONDITIONS ARE NOT AVAILABLE.

MNZ060>063-068>070-101300-
   Twin Cities Metro

CITY           SKY/WX    TMP DP  RH WIND       PRES   REMARKS
TWIN CITIES    CLOUDY    24  21  88 NW9       29.88R WCI  14
6HR MIN TEMP:  20; 6HR MAX TEMP:  24;

ST PAUL        CLOUDY    22  19  89 NW10      29.89R WCI  11
CRYSTAL        CLOUDY    24  17  74 NW9       29.88R WCI  14
BLAINE         CLOUDY    25  21  86 NW10      29.87R WCI  15
LAKEVILLE      CLEAR     21  19  93 NW9       29.88R WCI  11
EDEN PRAIRIE   CLOUDY    26  20  77 NW9       29.88R WCI  17
6HR MIN TEMP:  21; 6HR MAX TEMP:  27;

SOUTH ST PAUL  CLOUDY    24  20  83 NW6       29.88R WCI  17
LAKE ELMO      FAIR      23  21  93 NW9       29.87R WCI  13
$$
MNZ001>005-007-008-013>017-022>024-027-028-101300-
   Northwest Minnesota

CITY           SKY/WX    TMP DP  RH WIND       PRES   REMARKS
BEMIDJI        CLOUDY    21  18  87 N7        29.90R WCI  12
HALLOCK        CLOUDY    21  18  86 N6        29.99R WCI  14
ROSEAU         CLOUDY    19  16  86 N6        29.97R WCI  11
WARROAD        CLOUDY    18  16  93 NW6       29.96R WCI   9
THIEF RVR FALL CLOUDY    20  16  84 N9        29.97R WCI   9
CROOKSTON      CLOUDY    19  18  93 N10       30.00R WCI   8
FOSSTON        CLOUDY    19  18  93 NW8       29.94R WCI   9
DETROIT LAKES  CLOUDY    23  21  93 NW9       29.94R WCI  13
MOORHEAD       CLOUDY    19  18  93 CALM      30.00R
PARK RAPIDS    CLOUDY    23  19  85 N10       29.88R WCI  12
MAHNOMEN       CLOUDY    21  19  91 NW9       29.94R WCI  10
$$
MNZ006-009>011-018-025>026-101300-
   North Central Minnesota

CITY           SKY/WX    TMP DP  RH WIND       PRES   REMARKS
BAUDETTE       CLOUDY    17  13  84 N9        29.92R WCI   6
FLAG ISLAND    CLOUDY    16  12  86 N9        29.94R WCI   4
INTL FALLS     LGT SNOW  16  11  80 N10       29.91R WCI   4
6HR MIN TEMP:  16; 6HR MAX TEMP:  17; 6HR PCP: TRACE;

WASKISH        CLOUDY    19  16  86 CALM      29.91R
BIG FORK       CLOUDY    19  16  86 N6        29.88R WCI  11
GRAND RAPIDS   CLOUDY    20  16  84 N7        29.88R WCI  11
ORR            CLOUDY    16  10  79 NW5       29.85R WCI   9
COOK           FLURRIES  16  12  86 N3        29.87R
WALKER         CLOUDY    22  17  84 NW7       29.88R WCI  13
$$
MNZ012-019>021-037-101300-
   Northeast Minnesota

CITY           SKY/WX    TMP DP  RH WIND       PRES   REMARKS
DULUTH         CLOUDY    20  16  84 N10       29.82R WCI   9
6HR MIN TEMP:  17; 6HR MAX TEMP:  20;

ELY            FLURRIES  14   9  79 N5        29.84R WCI   6
HIBBING        CLOUDY    18  13  80 N10       29.85R WCI   6
EVELETH        LGT SNOW  17  12  78 N6        29.85R WCI   9
DULUTH HARBOR  CLOUDY    25  19  80 NW12      29.87R WCI  14
TWO HARBORS    CLOUDY    21  16  79 NW3       29.82R
G MARAIS ARPRT FLURRIES   9   3  78 NW16G22   29.76R WCI  -9
$$
MNZ029>031-032-039>041-046>048-054>057-064-101300-
   West Central Minnesota

CITY           SKY/WX    TMP DP  RH WIND       PRES   REMARKS
FERGUS FALLS   CLOUDY    21  18  86 NW12      29.99R WCI   9
MORRIS         CLOUDY    28  21  74 NW16      29.95R WCI  17
ALEXANDRIA     MOCLDY    25  20  81 N15G22    29.92R WCI  13
ELBOW LAKE     CLOUDY    25  20  83 W17       29.95R WCI  11
WADENA         CLOUDY    23  19  86 NW9       29.90R WCI  13
GLENWOOD       CLOUDY    25  21  86 NW9       29.92R WCI  15
BENSON         PTCLDY    28  21  74 N16G23    29.96R WCI  17
ORTONVILLE     CLOUDY    32  25  74 NW14G20   29.97R WCI  22
MADISON        MOCLDY    36  27  69 NW12      29.97R
WILLMAR        FAIR      28  23  80 NW12      29.94R WCI  18
$$
MNZ033>034-036-042>043-049>051-058-059-101300-
   Central Minnesota

CITY           SKY/WX    TMP DP  RH WIND       PRES   REMARKS
ST CLOUD       CLOUDY    25  21  85 NW8       29.89R WCI  16
6HR MIN TEMP:  15; 6HR MAX TEMP:  25;

SAUK CENTRE    CLOUDY    25  20  82 NW15      29.91R WCI  12
PAYNESVILLE    CLOUDY    25  22  90 NW3       29.92R
AITKIN         CLOUDY    23  18  80 N6        29.85S WCI  16
PINE RIVER     CLOUDY    21  19  93 NW8       29.91R WCI  12
BRAINERD       CLOUDY    24  19  81 NW9       29.88R WCI  14
STAPLES        CLOUDY    23  19  86 NW6       29.89S WCI  16
LONG PRAIRIE   CLOUDY    23  19  86 W9        29.90R WCI  13
LITTLE FALLS   CLOUDY    25  18  74 NW5       29.90R WCI  19
LITCHFIELD     PTCLDY    28  23  80 NW8       29.92R WCI  20
BUFFALO        CLOUDY    26  21  81 NW7       29.90R WCI  19
MAPLE LAKE     CLOUDY    27  23  84 NW7       29.90R WCI  20
HUTCHINSON     CLOUDY    29  24  81 NW13      29.92R WCI  18
$$
MNZ037-044-045-052-053-101300-
   East Central Minnesota

CITY           SKY/WX    TMP DP  RH WIND       PRES   REMARKS
PRINCETON      CLOUDY    25  21  86 NW5       29.87R WCI  19
MORA           CLOUDY    25  21  86 N6        29.88R WCI  18
CAMBRIDGE      CLOUDY    27  19  74 NW7       29.88R WCI  19
RUSH CITY      CLOUDY    23  19  83 NW6       29.87R WCI  16
MOOSE LAKE     CLOUDY    25  19  80 N7        29.84R WCI  17
HINCKLEY       CLOUDY    25  19  80 NW7       29.86R WCI  17
CLOQUET        CLOUDY    21  16  79 NW9       29.83S WCI  11
MCGREGOR       CLOUDY    25  19  80 N7        29.86S WCI  17
$$
MNZ071>073-080-081-089-090-097-098-101300-
   Southwest Minnesota

CITY           SKY/WX    TMP DP  RH WIND       PRES   REMARKS
MONTEVIDEO     CLOUDY    30  23  74 N12G18    29.96R WCI  21
GRANITE FALLS  CLOUDY    33  26  74 NW14      29.97R WCI  23
CANBY          MOCLDY    33  28  79 W8        29.99R WCI  26
MARSHALL       CLOUDY    33  24  69 NW16      29.96R WCI  23
REDWOOD FALLS  MOCLDY    32  21  64 NW14G25   29.94R WCI  22
OLIVIA         PTCLDY    30  25  80 NW13      29.93R WCI  20
PIPESTONE      CLOUDY    28  25  86 NW9       29.96R WCI  20
WINDOM           N/A     32  18  55 NW16      29.93R WCI  21
WORTHINGTON    CLOUDY    31  25  78 NW12      29.95R WCI  22
JACKSON        MOCLDY    32  25  74 MISG      29.92R
TRACY          CLOUDY    33  27  77 NW14      29.95R WCI  23
$$
MNZ065>067-074>077-082>085-091>093-101300-
   South Central Minnesota

CITY           SKY/WX    TMP DP  RH WIND       PRES   REMARKS
MANKATO        PTCLDY    28  23  81 NW16      29.90R WCI  16
NEW ULM        CLOUDY    30  21  69 NW20G25   29.91R WCI  18
ST JAMES       CLOUDY    30  25  80 NW16      29.92R WCI  19
FAIRMONT       CLOUDY    31  25  78 NW18      29.91R WCI  19
GLENCOE        CLOUDY    29  24  80 NW10      29.90R WCI  20
FARIBAULT      CLOUDY    27  21  80 NW10      29.87R WCI  17
WASECA         CLOUDY    28  23  80 NW13G20   29.89R WCI  18
ALBERT LEA     CLOUDY    28  21  74 NW13G20   29.86R WCI  18
$$
MNZ078>079-086>088-094>096-101300-
   Southeast Minnesota

CITY           SKY/WX    TMP DP  RH WIND       PRES   REMARKS
ROCHESTER      CLOUDY    22  19  89 NW12      29.82R WCI  10
6HR MIN TEMP:  20; 6HR MAX TEMP:  23;

RED WING       PTCLDY    18  16  93 CALM      29.85R
STANTON        CLEAR     25  21  85 NW9       29.86R WCI  15
DODGE CENTER   PTCLDY    25  19  80 NW15      29.82R WCI  12
WINONA           N/A     21  18  86 N5        29.85R WCI  15
AUSTIN         CLOUDY    27  21  80 NW10      29.83R WCI  17
PRESTON        CLOUDY    19  16  86 W10       29.81R WCI   7
$$
ABBREVIATIONS USED IN REMARKS
   TC - TEMPERATURES IN CELSIUS
  WCI - WIND CHILL INDEX
   HX - HEAT INDEX
  VSB - VISIBILITY
$$



USA.gov is the U.S. government's official web portal to all federal, state and local government web resources and services.